Burns Flat, OK

5:28 AM CST on December 10, 2016 (GMT -0600)
Clinton-Sherman

Weather History for KCSM - October, 2011

Change the Weather History Date:

Friday, October 14, 2011

  Actual Average Record
Temperature  
Mean Temperature 70 °F -  
Max Temperature 82 °F 71 °F 93 °F (2015)
Min Temperature 57 °F 49 °F 39 °F (2004)
Cooling Degree Days 4    
Growing Degree Days 20 (Base 50)    
Moisture  
Dew Point 46 °F    
Average Humidity 46    
Maximum Humidity 59    
Minimum Humidity 31    
Precipitation  
Precipitation 0.00 in - - ()
Sea Level Pressure  
Sea Level Pressure 29.90 in    
Wind  
Wind Speed 15 mph (South)    
Max Wind Speed 24 mph    
Max Gust Speed 30 mph    
Visibility 10 miles    
Events      
Averages and records for this station are not official NWS values.
T = Trace of Precipitation, MM = Missing Value Source: NWS Daily Summary

Daily Weather History Graph

Daily Weather History Graph

Search for Another Location

Airport or City:

Trip Planner

Search our weather history database for the weather conditions in past years. The results will help you decide how hot, cold, wet, or windy it might be!

Date:

Astronomy

Oct. 14, 2011 Rise Set
Actual Time 7:41 AM CDT 7:03 PM CDT
Civil Twilight 7:16 AM CDT 7:28 PM CDT
Nautical Twilight 6:46 AM CDT 7:58 PM CDT
Astronomical Twilight 6:17 AM CDT 8:27 PM CDT
Moon 8:25 PM CDT (10/14) 10:04 AM CDT (10/14)
Length of Visible Light 12h 12m
Length of Day
11h 21m
Waning Gibbous, 94% of the Moon is Illuminated
Oct 14
Waning Gibbous
Oct 19
Last Quarter
Oct 26
New
Nov 2
First Quarter
Nov 10
Full

Hourly Weather History & Observations

Time (CDT) Temp. Dew Point Humidity Pressure Visibility Wind Dir Wind Speed Gust Speed Precip Events Conditions
12:53 AM 61.0 °F 42.1 °F 50% 29.89 in 10.0 mi South 15.0 mph - N/A   Clear
1:53 AM 60.1 °F 43.0 °F 53% 29.89 in 10.0 mi South 12.7 mph - N/A   Clear
2:53 AM 60.1 °F 42.1 °F 51% 29.89 in 10.0 mi South 13.8 mph - N/A   Clear
3:53 AM 61.0 °F 42.1 °F 50% 29.88 in 10.0 mi South 16.1 mph - N/A   Clear
4:53 AM 57.9 °F 43.0 °F 58% 29.89 in 10.0 mi South 16.1 mph 23.0 mph N/A   Clear
5:53 AM 57.9 °F 43.0 °F 58% 29.88 in 10.0 mi South 15.0 mph - N/A   Clear
6:53 AM 57.0 °F 43.0 °F 59% 29.90 in 10.0 mi South 16.1 mph - N/A   Clear
8:53 AM 60.1 °F 44.1 °F 55% 29.92 in 10.0 mi South 15.0 mph - N/A   Clear
9:53 AM 66.0 °F 44.1 °F 45% 29.92 in 10.0 mi South 20.7 mph - N/A   Clear
10:53 AM 70.0 °F 44.1 °F 39% 29.92 in 10.0 mi South 24.2 mph 29.9 mph N/A   Clear
11:53 AM 73.9 °F 45.0 °F 35% 29.92 in 10.0 mi South 20.7 mph 26.5 mph N/A   Clear
12:53 PM 78.1 °F 48.0 °F 35% 29.89 in 10.0 mi South 17.3 mph - N/A   Clear
2:53 PM 79.0 °F 48.9 °F 35% 29.87 in 10.0 mi South 16.1 mph - N/A   Clear
3:53 PM 81.0 °F 48.9 °F 33% 29.85 in 10.0 mi South 12.7 mph - N/A   Clear
4:53 PM 82.0 °F 48.9 °F 31% 29.85 in 10.0 mi SSE 9.2 mph - N/A   Clear
5:53 PM 81.0 °F 48.0 °F 31% 29.87 in 10.0 mi South 9.2 mph - N/A   Clear
6:53 PM 75.0 °F 51.1 °F 43% 29.90 in 10.0 mi ESE 5.8 mph - N/A   Clear
7:53 PM 70.0 °F 51.1 °F 51% 29.93 in 10.0 mi ENE 6.9 mph - N/A   Clear
8:53 PM 68.0 °F 52.0 °F 56% 29.96 in 10.0 mi NE 11.5 mph - N/A   Clear
9:53 PM 64.9 °F 50.0 °F 58% 29.99 in 10.0 mi NNE 11.5 mph - N/A   Clear